Theta_e
338 344 354 352 351 349 346 346 345 345 344 344 348 349 345 345 348 349 347 346 345 343 342 343 347 344 342 347 344 344 341 341 342 342 343 346 345 342 340 341 339 333 338
341 346 354 353 352 349 347 344 344 344 344 344 347 348 349 346 345 348 347 345 344 343 341 343 345 345 343 342 342 342 340 339 340 339 339 341 344 343 340 340 341 333 337
336 347 350 353 352 350 348 346 343 343 343 343 344 348 350 347 347 348 347 345 344 343 341 340 343 343 341 340 339 340 340 339 338 339 339 332 338 342 341 339 342 342 339
338 347 349 353 352 350 350 348 346 343 342 343 347 348 350 351 348 347 348 344 343 343 341 341 341 341 342 340 339 336 336 338 338 340 335 332 335 343 342 340 339 337 336
341 344 349 352 352 351 349 349 348 345 343 343 344 345 347 351 351 347 348 346 344 344 341 339 339 338 337 337 337 337 336 336 338 333 330 330 329 339 343 342 339 338 338
342 345 349 351 352 351 350 349 348 349 346 345 343 342 344 349 349 350 350 349 348 347 343 340 339 339 338 337 336 337 338 338 336 326 327 329 329 340 343 342 340 339 338
337 344 348 351 351 350 349 349 349 349 349 348 346 345 343 345 349 348 350 350 347 344 344 342 341 341 340 339 338 337 339 340 332 326 326 327 329 341 341 342 341 339 339
331 334 336 340 344 344 345 346 347 348 348 348 349 349 348 345 345 348 348 348 347 345 344 343 343 342 342 341 340 339 339 338 334 327 326 327 333 341 341 340 340 339 339
321 320 318 316 320 326 330 334 334 335 337 340 344 345 345 345 345 344 346 347 347 347 346 345 344 344 343 343 343 342 340 336 331 329 328 326 334 340 343 341 339 338 337
311 312 310 309 311 311 312 322 323 325 327 327 330 334 335 338 340 343 342 342 346 347 346 346 345 344 345 345 344 342 339 337 327 326 328 326 334 342 344 343 340 338 338
307 305 306 307 307 308 310 312 314 317 318 317 317 319 317 326 332 335 337 339 341 344 346 346 345 345 343 341 342 341 338 333 328 325 325 330 335 339 344 344 342 340 339
302 306 306 306 307 307 311 307 307 308 307 306 305 305 308 308 310 317 324 333 336 338 340 342 344 343 339 337 335 336 335 333 330 329 326 332 335 339 341 345 344 342 341
301 305 306 305 305 305 305 305 305 305 305 305 305 304 304 304 304 306 308 312 316 324 328 334 335 336 338 337 335 333 332 331 332 331 331 334 336 337 340 345 345 343 342
301 303 304 304 304 303 304 304 304 304 306 304 305 306 304 303 302 302 303 304 307 310 314 319 325 329 330 332 334 335 335 334 334 332 331 331 334 338 339 342 346 345 344
301 302 303 304 303 304 304 303 304 304 304 304 305 306 305 303 302 303 302 303 304 306 307 308 311 316 320 326 330 333 334 336 334 333 332 329 332 334 338 340 343 344 344
302 302 303 304 303 305 304 304 304 305 305 306 305 306 306 305 303 304 304 304 304 305 305 306 307 309 313 318 322 326 329 332 335 335 332 332 331 333 334 339 340 345 345
302 302 303 304 306 305 305 305 305 305 307 305 306 306 306 307 306 305 305 305 305 305 306 306 306 307 307 310 312 316 321 323 328 330 333 334 332 329 331 336 340 344 345
301 302 303 308 305 305 305 305 305 306 305 305 305 305 306 307 306 305 305 305 306 306 306 305 305 305 305 305 306 309 313 317 320 322 326 329 333 332 330 332 335 341 343
301 302 303 304 305 305 305 305 304 304 304 303 303 303 305 306 306 304 304 304 305 305 305 304 304 303 303 304 306 307 308 310 314 319 319 321 323 329 329 329 330 331 334
302 302 303 304 305 305 304 303 302 302 302 302 302 303 305 305 305 304 304 304 305 304 304 304 303 304 303 303 306 306 306 307 309 311 315 321 321 324 327 327 327 328 329
301 302 303 304 304 303 301 299 299 298 299 301 302 303 303 304 305 304 304 304 304 303 303 305 304 304 303 304 302 305 304 306 307 308 311 314 319 322 323 325 326 326 327
301 302 303 303 304 302 300 299 299 298 299 300 302 302 303 304 304 304 303 303 303 303 304 304 304 303 303 305 302 301 299 301 304 308 308 313 313 317 319 322 324 324 324
300 301 302 303 302 300 299 298 299 300 300 299 300 301 303 304 304 304 304 304 304 304 304 304 304 304 302 303 304 302 300 300 302 305 306 308 313 313 318 318 321 325 324
300 301 302 302 301 300 298 296 297 298 297 298 299 301 303 304 304 305 305 305 305 305 304 305 308 304 302 301 302 307 304 303 298 297 303 305 312 314 315 318 317 320 323
300 300 301 300 299 298 296 298 299 298 298 299 304 305 303 303 304 305 306 306 305 306 306 308 304 303 303 302 301 301 302 302 302 300 297 301 304 310 314 316 317 316 319
300 300 299 299 299 297 297 300 299 298 298 298 302 304 306 307 304 305 306 305 306 307 308 309 304 302 302 302 302 302 303 301 301 303 302 301 301 305 310 313 314 315 318
Wind_Speed
3 4 6 7 7 8 7 7 6 6 6 6 6 6 6 5 5 5 5 6 7 7 7 6 8 8 6 11 9 9 8 8 8 9 10 11 11 11 11 11 9 5 12
5 5 6 7 8 8 8 7 6 5 5 5 5 6 6 4 3 3 4 5 6 6 6 6 7 7 7 6 6 6 6 7 7 7 7 7 7 8 10 10 7 7 10
6 5 5 7 7 7 7 6 5 4 4 4 5 5 5 2 2 3 3 3 4 5 4 4 5 5 5 4 4 3 2 3 2 3 4 2 2 7 8 8 6 11 10
4 6 5 7 7 6 5 5 4 4 3 3 3 4 7 8 2 2 2 2 3 3 3 4 4 3 3 2 2 2 0 1 3 6 4 3 2 5 8 9 8 7 6
4 5 5 7 7 6 4 2 2 2 1 1 2 3 5 7 6 2 2 3 3 3 3 3 3 2 1 1 3 2 2 2 4 4 3 3 3 3 7 8 7 7 6
5 6 6 6 6 4 3 1 0 2 2 1 2 3 4 6 6 6 6 4 4 4 4 4 3 3 2 2 4 5 5 4 4 3 4 5 4 6 7 7 7 7 7
6 5 5 5 5 5 3 3 3 3 2 2 3 4 4 5 5 6 6 5 5 5 6 6 6 6 5 5 5 6 6 6 2 3 4 5 5 10 7 8 7 7 7
6 5 6 7 8 7 6 6 6 7 7 6 6 6 6 6 5 5 4 4 6 7 7 8 8 9 8 8 8 7 6 7 3 3 4 4 8 12 9 9 9 8 7
6 6 5 6 7 9 10 11 10 10 9 8 7 8 7 7 7 7 7 8 8 9 9 9 10 11 11 10 10 8 8 8 5 3 4 3 8 13 12 10 10 10 10
6 6 6 6 6 6 6 12 12 12 11 12 11 9 7 6 6 8 9 8 10 11 11 11 12 12 12 10 10 9 10 10 5 5 4 4 10 14 16 13 12 12 11
5 6 6 6 6 6 6 7 10 11 13 12 10 11 8 5 5 6 8 7 10 12 13 13 13 13 11 10 10 10 10 3 5 4 3 10 13 14 18 16 14 14 13
4 4 5 6 6 6 4 6 6 6 5 5 6 7 5 6 5 7 7 10 11 10 10 12 14 14 10 4 4 8 4 5 4 5 4 13 15 17 17 17 16 16 16
3 3 4 4 5 6 5 4 3 3 3 4 6 6 5 4 5 4 4 4 5 7 4 6 6 4 4 4 4 4 5 5 4 5 8 15 17 18 19 19 16 18 18
3 2 3 4 4 4 3 3 3 3 4 4 4 6 4 4 5 5 3 5 4 4 6 5 3 4 5 6 7 7 7 6 5 4 7 14 18 20 21 21 20 19 21
3 2 1 2 3 3 4 3 3 4 3 4 4 5 4 4 4 4 4 4 3 4 3 5 5 4 5 5 5 7 8 8 8 5 5 11 14 19 22 25 23 23 24
4 3 0 1 1 3 3 3 3 3 4 4 4 4 5 3 3 4 4 4 4 3 3 3 4 4 5 5 5 5 6 6 7 6 5 6 12 16 20 23 25 24 24
4 2 1 2 1 2 3 3 3 3 4 3 4 5 5 4 4 4 3 4 4 4 5 4 4 3 4 4 5 6 5 6 5 6 6 6 6 11 16 22 25 25 24
3 3 2 1 2 2 3 3 3 3 3 3 4 4 5 5 5 4 3 3 4 4 3 3 3 4 4 4 4 5 5 5 6 6 5 6 6 6 10 18 22 24 26
5 4 3 3 3 3 3 3 3 3 3 4 4 4 5 5 5 3 3 3 4 3 3 3 3 2 3 4 5 5 5 5 6 6 6 7 7 8 6 12 15 17 22
4 3 4 4 3 3 3 3 2 2 3 3 4 3 5 4 5 4 4 4 4 3 4 3 3 3 3 4 5 6 5 5 4 5 6 6 7 8 8 9 7 9 20
4 4 5 4 4 0 1 2 2 2 3 3 3 5 5 4 5 5 3 4 3 3 4 4 2 4 3 2 3 5 4 5 5 4 4 5 6 8 6 6 6 6 7
3 6 6 6 3 2 1 1 1 1 2 3 3 5 5 5 5 5 4 4 4 3 5 3 2 3 2 2 2 3 4 5 4 8 4 4 6 5 6 6 7 8 7
7 7 6 6 5 3 2 1 1 1 2 3 3 4 3 5 5 5 5 4 4 2 4 4 3 3 3 3 2 2 4 2 8 3 9 3 6 5 5 6 6 6 7
8 6 6 6 5 3 2 1 1 1 2 2 3 3 4 4 5 5 5 5 4 3 5 4 3 2 1 4 3 0 3 3 3 5 3 5 4 5 8 5 5 6 6
6 7 6 6 5 4 3 3 2 3 3 3 3 5 4 4 4 5 5 5 5 4 4 5 3 3 1 2 1 2 3 3 4 3 6 5 3 4 4 5 5 5 8
5 6 6 6 6 5 3 4 5 5 4 3 4 3 3 3 3 5 5 5 5 4 4 3 3 3 3 4 2 2 3 3 3 4 3 5 5 4 4 7 5 3 7
Wind_Direction
216 192 151 125 110 93 86 84 82 80 81 81 82 75 76 71 79 77 79 85 88 82 73 80 76 73 66 62 72 77 78 84 78 64 48 62 88 95 94 93 78 74 90
157 179 176 131 116 102 90 88 90 85 75 68 65 54 61 67 75 20 93 98 97 94 89 72 80 84 75 70 74 84 88 91 88 69 49 43 83 100 105 102 107 102 90
163 162 161 137 124 119 104 98 95 88 76 57 42 30 12 0 17 35 124 115 106 101 93 97 92 85 88 80 73 77 85 84 78 351 14 44 75 117 120 120 96 102 99
151 153 148 145 134 126 121 102 93 91 86 63 31 12 1 16 343 348 177 145 126 122 113 101 100 90 86 85 80 76 346 329 338 326 297 262 267 129 153 140 120 110 117
76 136 138 150 141 135 131 135 133 110 93 38 343 345 356 4 4 277 250 197 167 161 164 160 149 132 110 340 321 315 299 318 351 351 326 224 264 176 163 150 135 129 105
66 110 133 142 137 136 146 189 140 227 238 272 319 335 344 357 360 346 277 197 179 185 200 209 206 213 237 284 306 303 298 318 358 345 354 260 225 225 159 146 153 156 150
84 75 84 101 103 79 96 47 16 10 281 293 321 338 342 346 348 348 337 199 198 213 225 231 235 235 244 260 282 298 304 311 345 313 316 284 241 232 194 185 184 180 177
94 82 72 61 62 59 45 31 24 16 15 358 345 337 330 332 332 328 320 250 229 234 240 243 245 246 244 250 263 273 288 294 310 286 292 297 244 249 211 205 200 201 199
79 73 63 49 34 30 34 28 22 19 15 358 356 346 341 327 318 315 314 284 256 251 253 249 252 253 255 252 258 263 269 279 280 267 274 282 251 258 238 207 210 212 209
58 54 44 39 30 32 38 26 24 21 16 14 6 3 347 324 318 313 306 291 286 271 257 248 247 252 253 252 250 249 260 269 266 273 260 260 265 252 248 224 217 223 224
52 41 41 34 27 15 37 19 16 15 16 12 6 359 356 348 344 334 313 305 299 288 280 266 256 249 247 249 253 250 253 243 252 247 246 254 260 261 252 236 221 228 232
76 39 36 37 28 18 17 16 10 6 5 7 6 3 0 356 346 347 343 345 344 337 322 318 308 274 248 232 246 253 242 242 238 251 247 253 255 254 257 249 230 226 230
105 56 32 32 31 24 11 7 5 4 0 358 1 0 354 354 349 354 346 346 342 349 340 339 333 336 305 268 250 246 241 240 243 244 249 253 255 257 253 252 245 229 230
121 108 40 25 22 15 6 11 359 4 355 352 345 351 1 352 350 345 340 340 346 338 335 340 335 320 312 311 300 279 259 255 252 245 248 248 254 256 252 251 248 235 230
147 155 30 14 9 359 10 2 360 351 347 335 344 341 355 348 342 332 337 346 349 346 347 335 333 326 314 302 288 292 287 271 262 249 254 250 251 255 257 251 247 238 236
169 186 278 353 17 356 1 353 346 341 338 351 348 346 351 0 355 4 353 352 355 351 341 337 329 323 316 316 302 290 286 284 277 274 258 264 256 257 263 258 255 243 239
196 177 236 260 313 356 347 341 348 339 353 359 351 352 355 5 355 348 337 340 332 328 330 336 332 331 332 322 306 300 291 282 275 275 273 271 268 260 259 269 263 243 238
182 200 230 251 312 319 332 334 335 344 355 344 337 333 342 341 345 339 338 335 324 331 336 344 338 330 326 320 305 294 291 282 277 273 275 272 265 256 259 252 257 257 238
195 202 238 256 275 297 311 317 328 336 351 336 333 334 332 346 353 5 334 313 326 334 338 335 327 310 310 307 304 299 289 280 273 280 274 275 273 266 253 248 242 251 273
200 218 245 248 256 287 313 328 334 343 345 346 334 332 339 324 321 316 313 318 341 345 341 346 323 319 276 290 305 296 281 282 271 263 261 266 272 272 262 255 244 238 235
214 233 242 246 254 215 353 348 4 315 314 317 327 327 325 325 322 320 307 317 327 329 314 317 299 306 305 314 320 311 265 278 287 300 302 279 280 279 270 256 253 249 242
210 235 246 246 248 248 198 242 216 260 279 281 311 318 322 331 325 313 318 304 308 313 323 324 335 318 286 336 314 282 328 318 6 322 288 297 287 301 283 269 258 246 246
236 236 241 243 238 243 234 314 329 332 314 338 333 311 320 329 329 327 318 310 311 283 290 305 312 309 305 303 357 284 331 339 335 315 307 305 313 304 304 295 277 268 257
237 240 246 240 237 240 205 247 234 238 287 253 261 263 305 337 334 332 329 326 315 322 306 278 268 258 266 311 329 297 267 276 305 315 322 300 301 314 327 324 331 312 261
237 234 237 238 245 246 234 213 237 247 240 265 273 325 320 311 343 326 335 341 331 313 286 274 314 317 251 262 272 323 293 259 246 259 303 315 313 312 300 307 312 356 326
249 240 232 237 247 243 236 244 244 237 257 288 293 299 313 318 327 333 331 322 313 309 313 324 327 314 298 267 270 288 266 288 289 274 268 294 283 290 315 311 335 347 297